GSAT0209 (GALILEO 12)

Last updated on Feb. 22, 2020, 4:51 a.m. UTC

1 41174U 15079A   20052.41876571 -.00000032  00000-0  00000+0 0  9992
2 41174  54.9759 164.7000 0003742 313.1435  46.7892  1.70473873 26017
UTC
Height (km)
Latitude
Longitude
Inclination
Orbital Period
UTC large
Height (km)
Speed (km/s)
/
Latitude / Longitude
Inclination (degrees)
Orbital Period (minutes)
Azimuth
Elevation
Range (km)
Doppler Factor
iOS Compass Heading
iOS Angle

Next 30 passes for location: Hong Kong

Rise time Rise Azimuth (degrees) Set time Set Azimuth (degrees) Duration Max altitude (degrees)

No matching passes for this satellites